Location: Albany
(35.0000°S, 118.0000°E)
Time: 00:36:30
(UTC-05:00)

Cosmos 1346 Rocket - Visible Passes

Search period start: 28 November 2014 00:00
Search period end: 08 December 2014 00:00
Orbit: 529 x 569 km, 81.2° (Epoch: 27 November)

Date Brightness Start Highest point End Pass type
(mag) Time Alt. Az. Time Alt. Az. Time Alt. Az.
28 Nov 3.3 13:07:14 10° S 13:10:58 58° ESE 13:10:58 58° ESE visible
29 Nov 3.4 13:02:32 10° S 13:05:55 56° SSE 13:05:55 56° SSE visible
30 Nov 3.6 12:57:50 10° S 13:00:54 50° S 13:00:54 50° S visible
01 Dec 3.8 12:53:09 10° S 12:55:54 43° S 12:55:54 43° S visible
02 Dec 4.1 12:48:27 10° S 12:50:56 37° SSW 12:50:56 37° SSW visible
03 Dec 4.3 12:43:45 10° SSW 12:46:00 32° SSW 12:46:00 32° SSW visible
04 Dec 4.5 12:39:04 10° SSW 12:41:05 28° SSW 12:41:05 28° SSW visible
05 Dec 4.7 12:34:22 10° SSW 12:36:11 25° SSW 12:36:11 25° SSW visible
06 Dec 4.8 12:29:41 10° SSW 12:31:18 23° SSW 12:31:18 23° SSW visible
07 Dec 5.0 12:25:00 10° SSW 12:26:26 20° SSW 12:26:26 20° SSW visible
